User: anonymous   Login
Location: Palmerston North
(40.3500°S, 175.6170°E)
Time: 12:26:05
(UTC+13:00)
Language:

Cosmos 2322 Rocket - Orbit

View from above orbital plane
View from above orbital plane
View from above satellite
View from above satellite

Ground track
Ground track

The orbit data is extracted from the following two-line orbital elements,

1 23705U 95058B   19077.53147044 +.00000191 +00000-0 +12281-3 0  9994
2 23705 071.0197 127.6353 0011005 035.8323 324.3536 14.15123441207339
Epoch (UTC): 18 March 2019 12:45:19
Eccentricity: 0.0011005
inclination: 71.0197°
perigee height: 834 km
apogee height: 850 km
right ascension of ascending node: 127.6353°
argument of perigee: 35.8323°
revolutions per day: 14.15123441
mean anomaly at epoch: 324.3536°
orbit number at epoch: 20733

The dashed part of the orbit path shows where the satellite is in the earth's shadow,  

DLR